TimeCDT,TemperatureF,Dew PointF,Humidity,Sea Level PressureIn,VisibilityMPH,Wind Direction,Wind SpeedMPH,Gust SpeedMPH,PrecipitationIn,Events,Conditions,WindDirDegrees,DateUTC
12:15 AM,69.8,55.4,60,29.94,10.0,SSE,13.8,-,N/A,,Clear,150,2013-10-02 05:15:00
12:35 AM,69.8,55.4,60,29.94,10.0,SSE,11.5,-,N/A,,Scattered Clouds,160,2013-10-02 05:35:00
12:55 AM,68.0,55.4,64,29.94,10.0,SSE,11.5,-,N/A,,Clear,160,2013-10-02 05:55:00
1:15 AM,68.0,55.4,64,29.93,10.0,SSE,11.5,-,N/A,,Clear,160,2013-10-02 06:15:00
1:35 AM,68.0,55.4,64,29.93,10.0,SSE,9.2,-,N/A,,Clear,150,2013-10-02 06:35:00
1:55 AM,66.2,55.4,68,29.93,10.0,SE,9.2,-,N/A,,Clear,140,2013-10-02 06:55:00
2:15 AM,66.2,55.4,68,29.93,10.0,SE,9.2,-,N/A,,Clear,140,2013-10-02 07:15:00
2:35 AM,66.2,55.4,68,29.93,10.0,SSE,8.1,-,N/A,,Scattered Clouds,150,2013-10-02 07:35:00
2:55 AM,64.4,55.4,73,29.93,10.0,SSE,6.9,-,N/A,,Scattered Clouds,160,2013-10-02 07:55:00
3:15 AM,64.4,55.4,73,29.93,10.0,SSE,6.9,-,N/A,,Scattered Clouds,150,2013-10-02 08:15:00
3:35 AM,64.4,55.4,73,29.93,10.0,SSE,5.8,-,N/A,,Scattered Clouds,160,2013-10-02 08:35:00
3:55 AM,62.6,55.4,77,29.92,10.0,SSE,5.8,-,N/A,,Clear,160,2013-10-02 08:55:00
4:15 AM,62.6,55.4,77,29.92,10.0,SSE,5.8,-,N/A,,Scattered Clouds,150,2013-10-02 09:15:00
4:35 AM,62.6,55.4,77,29.92,10.0,SSE,6.9,-,N/A,,Scattered Clouds,150,2013-10-02 09:35:00
4:55 AM,64.4,57.2,77,29.92,10.0,SE,9.2,-,N/A,,Scattered Clouds,140,2013-10-02 09:55:00
5:15 AM,64.4,57.2,77,29.91,10.0,SSE,6.9,-,N/A,,Scattered Clouds,150,2013-10-02 10:15:00
5:35 AM,64.4,57.2,77,29.92,10.0,SSE,8.1,-,N/A,,Clear,150,2013-10-02 10:35:00
5:55 AM,64.4,59.0,83,29.92,10.0,SE,9.2,-,N/A,,Clear,140,2013-10-02 10:55:00
6:15 AM,64.4,59.0,83,29.92,10.0,SE,11.5,-,N/A,,Clear,140,2013-10-02 11:15:00
6:35 AM,64.4,60.8,88,29.92,10.0,SSE,10.4,-,N/A,,Clear,150,2013-10-02 11:35:00
6:55 AM,64.4,60.8,88,29.92,10.0,SSE,10.4,-,N/A,,Clear,150,2013-10-02 11:55:00
7:15 AM,64.4,60.8,88,29.92,7.0,SSE,11.5,-,N/A,,Clear,150,2013-10-02 12:15:00
7:35 AM,64.4,62.6,94,29.92,7.0,SSE,11.5,-,N/A,,Clear,150,2013-10-02 12:35:00
7:55 AM,64.4,62.6,94,29.92,5.0,SE,10.4,-,N/A,,Clear,140,2013-10-02 12:55:00
8:15 AM,64.4,62.6,94,29.92,5.0,SSE,11.5,-,N/A,,Clear,150,2013-10-02 13:15:00
8:35 AM,66.2,62.6,88,29.93,5.0,SE,12.7,-,N/A,,Clear,140,2013-10-02 13:35:00
8:55 AM,68.0,62.6,83,29.93,5.0,SSE,12.7,-,N/A,,Clear,150,2013-10-02 13:55:00
9:15 AM,68.0,64.4,88,29.94,7.0,SSE,12.7,-,N/A,,Clear,150,2013-10-02 14:15:00
9:35 AM,69.8,64.4,83,29.95,7.0,SSE,15.0,-,N/A,,Clear,150,2013-10-02 14:35:00
9:55 AM,71.6,64.4,78,29.95,10.0,SSE,16.1,-,N/A,,Scattered Clouds,160,2013-10-02 14:55:00
10:15 AM,71.6,64.4,78,29.95,10.0,SSE,18.4,25.3,N/A,,Mostly Cloudy,150,2013-10-02 15:15:00
10:35 AM,71.6,64.4,78,29.95,10.0,SSE,16.1,-,N/A,,Overcast,160,2013-10-02 15:35:00
10:55 AM,73.4,64.4,73,29.95,10.0,South,17.3,-,N/A,,Overcast,170,2013-10-02 15:55:00
11:15 AM,73.4,64.4,73,29.95,10.0,South,18.4,25.3,N/A,,Overcast,180,2013-10-02 16:15:00
11:35 AM,75.2,64.4,69,29.95,10.0,South,17.3,25.3,N/A,,Overcast,170,2013-10-02 16:35:00
11:55 AM,73.4,64.4,73,29.95,10.0,South,18.4,-,N/A,,Overcast,170,2013-10-02 16:55:00
12:15 PM,77.0,64.4,65,29.95,10.0,SSE,19.6,24.2,N/A,,Overcast,160,2013-10-02 17:15:00
12:35 PM,77.0,64.4,65,29.94,10.0,SSE,19.6,24.2,N/A,,Overcast,160,2013-10-02 17:35:00
12:55 PM,77.0,64.4,65,29.94,10.0,South,17.3,24.2,N/A,,Overcast,170,2013-10-02 17:55:00
1:15 PM,77.0,64.4,65,29.93,10.0,South,17.3,23.0,N/A,,Overcast,170,2013-10-02 18:15:00
1:35 PM,78.8,64.4,61,29.92,10.0,SSE,18.4,23.0,N/A,,Overcast,160,2013-10-02 18:35:00
1:55 PM,78.8,64.4,61,29.92,10.0,South,19.6,24.2,N/A,,Overcast,170,2013-10-02 18:55:00
2:15 PM,80.6,64.4,58,29.91,10.0,SSE,17.3,23.0,N/A,,Overcast,160,2013-10-02 19:15:00
2:35 PM,80.6,64.4,58,29.89,10.0,South,18.4,-,N/A,,Mostly Cloudy,190,2013-10-02 19:35:00
2:55 PM,82.4,64.4,54,29.88,10.0,South,19.6,25.3,N/A,,Mostly Cloudy,170,2013-10-02 19:55:00
3:15 PM,82.4,62.6,51,29.88,10.0,SSE,19.6,25.3,N/A,,Scattered Clouds,160,2013-10-02 20:15:00
3:35 PM,82.4,62.6,51,29.86,10.0,South,18.4,25.3,N/A,,Scattered Clouds,180,2013-10-02 20:35:00
3:55 PM,84.2,62.6,48,29.86,10.0,SSE,23.0,31.1,N/A,,Scattered Clouds,160,2013-10-02 20:55:00
4:15 PM,82.4,60.8,48,29.85,10.0,South,20.7,25.3,N/A,,Scattered Clouds,180,2013-10-02 21:15:00
4:35 PM,82.4,60.8,48,29.84,10.0,SSE,18.4,25.3,N/A,,Scattered Clouds,160,2013-10-02 21:35:00
4:55 PM,82.4,60.8,48,29.84,10.0,SSE,18.4,-,N/A,,Scattered Clouds,160,2013-10-02 21:55:00
5:15 PM,82.4,60.8,48,29.84,10.0,South,20.7,-,N/A,,Scattered Clouds,170,2013-10-02 22:15:00
5:35 PM,84.2,60.8,45,29.83,10.0,South,17.3,25.3,N/A,,Clear,180,2013-10-02 22:35:00
5:55 PM,84.2,59.0,42,29.83,10.0,South,18.4,24.2,N/A,,Scattered Clouds,170,2013-10-02 22:55:00
6:15 PM,82.4,60.8,48,29.84,10.0,South,19.6,24.2,N/A,,Scattered Clouds,170,2013-10-02 23:15:00
6:35 PM,82.4,59.0,45,29.84,10.0,South,15.0,25.3,N/A,,Scattered Clouds,170,2013-10-02 23:35:00
6:55 PM,82.4,59.0,45,29.84,10.0,SSE,15.0,-,N/A,,Scattered Clouds,160,2013-10-02 23:55:00
7:15 PM,80.6,59.0,48,29.84,10.0,SSE,13.8,-,N/A,,Scattered Clouds,160,2013-10-03 00:15:00
7:35 PM,80.6,59.0,48,29.84,10.0,SSE,15.0,-,N/A,,Clear,160,2013-10-03 00:35:00
7:55 PM,78.8,59.0,51,29.84,10.0,SSE,12.7,18.4,N/A,,Clear,160,2013-10-03 00:55:00
8:15 PM,78.8,59.0,51,29.85,10.0,South,12.7,-,N/A,,Clear,170,2013-10-03 01:15:00
8:35 PM,77.0,59.0,54,29.85,10.0,SSE,12.7,-,N/A,,Clear,160,2013-10-03 01:35:00
8:55 PM,77.0,60.8,57,29.85,10.0,SSE,11.5,-,N/A,,Clear,150,2013-10-03 01:55:00
9:15 PM,75.2,60.8,61,29.86,10.0,SE,10.4,-,N/A,,Clear,140,2013-10-03 02:15:00
9:35 PM,73.4,60.8,65,29.86,10.0,SE,11.5,-,N/A,,Clear,140,2013-10-03 02:35:00
9:55 PM,73.4,62.6,69,29.86,10.0,SSE,12.7,-,N/A,,Clear,150,2013-10-03 02:55:00
10:15 PM,73.4,60.8,65,29.86,10.0,SSE,13.8,-,N/A,,Clear,150,2013-10-03 03:15:00
10:35 PM,73.4,60.8,65,29.86,10.0,SSE,15.0,-,N/A,,Clear,150,2013-10-03 03:35:00
10:55 PM,73.4,60.8,65,29.86,10.0,SE,13.8,-,N/A,,Clear,140,2013-10-03 03:55:00
11:15 PM,73.4,60.8,65,29.86,10.0,SSE,12.7,-,N/A,,Clear,150,2013-10-03 04:15:00
11:35 PM,71.6,60.8,69,29.86,10.0,SSE,13.8,-,N/A,,Clear,150,2013-10-03 04:35:00
11:55 PM,71.6,60.8,69,29.86,10.0,SSE,13.8,-,N/A,,Clear,150,2013-10-03 04:55:00